This is the latest recevied weather packets stored in our database for station/object KN6ETB-1. If no packets are shown the sender has not sent any weather packets the latest 10 day(s).
| Time | Temp. | Humidity | Pressure | Rain* | Wind** | Luminosity | Snow |
|---|---|---|---|---|---|---|---|
| 1777489872 | 23.89° C | 46% | 1015.4 hPa | 0 mm | - | 704 W/m² | - |
| 1777489570 | 22.78° C | 46% | 1015.3 hPa | 0 mm | - | 762 W/m² | - |
| 1777489266 | 23.33° C | 47% | 1015.6 hPa | 0 mm | - | 574 W/m² | - |
| 1777488963 | 23.33° C | 50% | 1015.6 hPa | 0 mm | - | 792 W/m² | - |
| 1777488660 | 23.33° C | 51% | 1015.7 hPa | 0 mm | - | 781 W/m² | - |
| 1777488358 | 23.33° C | 48% | 1015.7 hPa | 0 mm | - | 811 W/m² | - |
| 1777488056 | 22.78° C | 50% | 1015.5 hPa | 0 mm | - | 824 W/m² | - |
| 1777487754 | 22.22° C | 50% | 1015.8 hPa | 0 mm | - | 840 W/m² | - |
| 1777487451 | 22.78° C | 51% | 1015.8 hPa | 0 mm | - | 840 W/m² | - |
| 1777487149 | 22.22° C | 52% | 1015.8 hPa | 0 mm | - | 797 W/m² | - |
| 1777486844 | 22.78° C | 50% | 1015.7 hPa | 0 mm | - | 790 W/m² | - |
| 1777486542 | 22.78° C | 51% | 1015.7 hPa | 0 mm | - | 793 W/m² | - |
| 1777486239 | 22.22° C | 52% | 1015.7 hPa | 0 mm | - | 826 W/m² | - |
| 1777485937 | 21.67° C | 54% | 1015.9 hPa | 0 mm | - | 825 W/m² | - |
| 1777485632 | 21.67° C | 53% | 1016 hPa | 0 mm | - | 848 W/m² | - |
| 1777485327 | 21.67° C | 55% | 1016.1 hPa | 0 mm | - | 808 W/m² | - |
| 1777485024 | 21.67° C | 54% | 1016 hPa | 0 mm | - | 803 W/m² | - |
| 1777484722 | 21.11° C | 56% | 1016 hPa | 0 mm | - | 802 W/m² | - |
| 1777484418 | 21.11° C | 57% | 1015.7 hPa | 0 mm | - | 799 W/m² | - |
| 1777484115 | 20.56° C | 58% | 1015.9 hPa | 0 mm | - | 837 W/m² | - |
| 1777483811 | 20.56° C | 59% | 1016 hPa | 0 mm | - | 842 W/m² | - |
| 1777483508 | 20.56° C | 59% | 1015.9 hPa | 0 mm | - | 851 W/m² | - |
| 1777483202 | 21.11° C | 59% | 1016 hPa | 0 mm | - | 815 W/m² | - |
| 1777482899 | 20° C | 62% | 1015.9 hPa | 0 mm | - | 765 W/m² | - |
| 1777482595 | 19.44° C | 62% | 1016.1 hPa | 0 mm | - | 765 W/m² | - |
* Rain latest hour (hover to see other rain measurements)
** Current wind speed in m/s (hover to see current wind gust speed)